Location: Newark
(45.2500°N, 7.5833°E)
Time: 15:39:33
(UTC+00:00)

Tiros 1 despin weight - Pass Details

Date: 29 January 2020
Orbit: 594 x 642 km, 48.2° (Epoch: 24 February)

Event Time Altitude Azimuth Distance (km) Brightness Sun altitude
Rises 12:25:15 0° 280° (W) 2,874 ? 26.0°
Reaches altitude 10° 12:27:34 10° 284° (WNW) 1,977 ? 25.9°
Maximum altitude 12:32:04 61° 5° (N) 711 ? 25.8°
Drops below altitude 10° 12:36:39 10° 86° (E) 2,006 ? 25.6°
Sets 12:39:01 0° 90° (E) 2,920 ? 25.5°
